[[{"header":{"parameterUnit":"m.s-1","parameterCategory":1,"la1":30.2992,"la2":30.254,"lo1":-89.0895,"lo2":-89.0443,"dy":0.0025,"dx":0.0025,"nx":19,"ny":19,"refTime":"2026-05-06T09:00:00:Z","depth":0,"parameterNumber":2,"parameterNumberName":"U-component_of_WINDS"},"data":[0,0,0,2.5967,2.5968,2.599,2.599,2.6032,2.6032,0,0,0,0,0,0,0,0,0,0,0,2.5969,2.597,2.5967,2.5968,2.599,2.599,2.6032,2.6032,0,0,0,0,0,0,0,0,0,0,0,2.5969,2.5969,2.597,2.5968,2.599,2.599,2.6032,2.601,0,0,0,0,0,0,0,0,0,0,2.5986,2.5996,2.5969,2.597,2.5968,2.599,2.599,2.6009,2.6011,2.6028,0,2.6045,0,2.6039,2.6036,2.6036,0,0,0,2.5961,2.5994,2.5992,2.597,2.5968,2.599,2.5978,2.601,2.6013,2.6031,2.6045,2.6046,2.604,2.6036,2.6037,2.6151,2.6152,0,0,2.596,2.5978,2.599,2.5995,2.5993,2.5977,2.5979,2.6012,2.6028,2.6045,2.6047,2.6041,2.6037,2.6037,2.615,2.6151,0,0,0,2.5961,2.5977,2.5974,2.5994,2.5996,2.5978,2.598,2.6026,2.6024,2.6047,2.6041,2.6037,2.6038,2.6149,2.6151,2.6207,0,0,0,2.596,2.5977,2.5974,2.5985,2.5996,2.6012,2.5994,2.6022,2.6025,2.6041,2.6037,2.6038,2.6148,2.615,2.6204,2.6231,0,0,0,2.5965,2.5978,2.5984,2.5986,2.5996,2.6011,2.601,2.6022,2.6021,2.6036,2.6038,2.6148,2.615,2.6201,2.6226,2.6265,0,0,0,2.5975,2.6036,2.5985,2.6051,2.5996,2.6046,2.601,2.6047,2.6066,2.6037,2.6149,2.6151,2.62,2.6223,2.6262,2.63,2.6318,0,0,2.6061,2.6047,2.6084,2.6039,2.6103,2.6042,2.6113,2.6115,2.6101,2.6135,2.6138,2.6205,2.6226,2.6264,2.6415,2.643,0,0,0,2.6117,2.6143,2.6156,2.6176,2.6178,2.6182,2.6171,2.6171,2.6199,2.6122,2.623,2.6242,2.6264,2.6281,2.6293,2.631,2.616,2.616,2.6159,2.6264,2.6242,2.63,2.6281,2.63,2.6287,2.63,2.6298,2.6271,2.6297,2.6306,2.6401,2.6422,2.6431,2.6449,2.6326,2.6326,2.6326,2.6327,2.6387,2.642,2.6382,2.6425,2.6401,2.6437,2.6426,2.6406,2.6435,2.6392,2.641,2.6364,2.6447,2.6462,2.6331,2.633,2.6329,2.6329,2.6329,2.648,2.6491,2.6491,2.6514,2.6536,2.6513,2.6543,2.6521,2.65,2.6518,2.6524,2.6523,2.6518,2.6523,2.6523,2.6524,2.6524,2.6524,2.6524,2.6576,2.6573,2.66,2.6607,2.6615,2.6623,2.661,2.6618,2.662,2.6601,2.6601,2.6571,2.646,2.6432,2.6529,2.6528,2.6528,2.6527,2.6527,2.6706,2.6673,2.6715,2.6723,2.6728,2.675,2.6721,2.6738,2.6741,2.6756,2.6721,2.6644,2.6627,2.6617,2.6594,2.6727,2.6727,2.6727,2.6727,2.6783,2.6772,2.6809,2.6824,2.6836,2.6813,2.6861,2.6851,2.6836,2.6836,2.6814,2.6781,2.6772,2.6761,2.6748,2.6725,2.6889,2.6889,2.6889,2.6861,2.685,2.6895,2.6879,2.6881,2.6883,2.6926,2.6944,2.692,2.6895,2.6835,2.6828,2.6775,2.676,2.6732,2.6712,2.6671,0,0]},{"header":{"parameterUnit":"m.s-1","parameterCategory":1,"la1":30.2992,"la2":30.254,"lo1":-89.0895,"lo2":-89.0443,"dy":0.0025,"dx":0.0025,"nx":19,"ny":19,"refTime":"2026-05-06T09:00:00:Z","depth":0,"parameterNumber":3,"parameterNumberName":"V-component_of_WINDS"},"data":[0,0,0,6.0626,6.0629,6.0755,6.0756,6.0919,6.0921,0,0,0,0,0,0,0,0,0,0,0,6.0594,6.0595,6.0626,6.0629,6.0755,6.0756,6.0919,6.0921,0,0,0,0,0,0,0,0,0,0,0,6.0593,6.0595,6.0596,6.063,6.0755,6.0756,6.0919,6.0822,0,0,0,0,0,0,0,0,0,0,6.0698,6.0674,6.0594,6.0596,6.0631,6.0755,6.0756,6.0817,6.0828,6.0864,0,6.0901,0,6.0914,6.0932,6.0933,0,0,0,6.0624,6.0665,6.0695,6.0597,6.0632,6.0755,6.0697,6.0823,6.0835,6.0879,6.0904,6.091,6.0917,6.0933,6.0934,6.117,6.1172,0,0,6.0617,6.0618,6.0687,6.0704,6.0689,6.0693,6.0701,6.083,6.0856,6.0904,6.0913,6.092,6.0935,6.0936,6.1169,6.1171,0,0,0,6.0601,6.0613,6.064,6.0697,6.072,6.0697,6.0706,6.085,6.0859,6.0915,6.0922,6.0936,6.0938,6.1168,6.117,6.1238,0,0,0,6.0596,6.0604,6.0637,6.0639,6.0718,6.0787,6.0723,6.085,6.0865,6.0921,6.0936,6.0939,6.1166,6.1169,6.1233,6.127,0,0,0,6.0584,6.0602,6.0623,6.0639,6.0694,6.0785,6.0802,6.0853,6.0869,6.0933,6.094,6.1165,6.1168,6.1229,6.1263,6.1334,0,0,0,6.0569,6.0679,6.0624,6.0748,6.0693,6.0828,6.0801,6.09,6.0963,6.0936,6.1167,6.117,6.1228,6.1258,6.1329,6.1395,6.1422,0,0,6.0708,6.0696,6.0769,6.0723,6.087,6.0809,6.0963,6.1018,6.1021,6.112,6.1125,6.1235,6.1262,6.1333,6.1574,6.1596,0,0,0,6.0813,6.0866,6.0905,6.0967,6.1014,6.1057,6.1089,6.1109,6.1194,6.1073,6.1279,6.1296,6.1337,6.1368,6.1387,6.1422,6.1184,6.1184,6.1183,6.1009,6.1011,6.1133,6.1151,6.1211,6.1244,6.1292,6.1325,6.1305,6.1354,6.1384,6.153,6.1567,6.1581,6.1618,6.1418,6.1418,6.1418,6.1418,6.1213,6.1288,6.1264,6.1374,6.1374,6.1464,6.15,6.1484,6.1567,6.1507,6.1544,6.148,6.1605,6.1637,6.1423,6.1423,6.1422,6.1421,6.1421,6.1342,6.1379,6.1405,6.1496,6.1566,6.1578,6.166,6.1656,6.1652,6.1688,6.1719,6.1718,6.1716,6.1703,6.1703,6.1704,6.1704,6.1705,6.1705,6.1466,6.1493,6.1565,6.1627,6.1667,6.1719,6.1754,6.1792,6.1833,6.1823,6.1823,6.18,6.1617,6.1572,6.1713,6.1712,6.1711,6.171,6.1709,6.1673,6.1627,6.1738,6.1779,6.185,6.192,6.1914,6.1993,6.2024,6.2064,6.2033,6.1899,6.1885,6.187,6.1832,6.2033,6.2033,6.2033,6.2033,6.1783,6.1777,6.189,6.1956,6.2019,6.2027,6.215,6.2178,6.2198,6.2217,6.2187,6.2136,6.2121,6.2116,6.2096,6.2061,6.2315,6.2315,6.2315,6.1911,6.1911,6.2018,6.2042,6.2098,6.2145,6.2261,6.2335,6.2347,6.2327,6.2231,6.2219,6.2138,6.2111,6.2088,6.2057,6.1993,0,0]}]]